This demonstration page uses our WeatherBlox Daily Observations layout. Learn more.

Left ArrowRight Arrow

Hourly Observations for February 22, 2019

Temp ( °F °C ) Dew Point ( °F °C ) Humidity (%) Winds ( mph kmh ) Pressure ( in mb ) Visibility ( mi km ) Precip ( " mm )
12:57 am 00:57 Cloudy 24 -4.4 20 -6.7 84 84 ENE 15 24 30.21 1023 8 13 0.00 0.03
1:57 am 01:57 Cloudy 23 -5 20 -6.7 88 88 E 15 24 30.22 1023 9 14 0.00 0.00
2:57 am 02:57 Mostly Cloudy 23 -5 19 -7.2 85 85 E 13 20 30.22 1023 9 14 0.00 0.00
3:57 am 03:57 Cloudy 23 -5 20 -6.7 88 88 E 10 17 30.21 1023 9 14 0.00 0.00
4:34 am 04:34 Cloudy 25 -4 19 -7 80 80 E 15 24 30.26 1025 9 14 0.00 0.00
4:57 am 04:57 Cloudy 24 -4.4 20 -6.7 84 84 E 14 22 30.21 1023 9 14 0.00 0.00
5:57 am 05:57 Cloudy 23 -5 19 -7.2 85 85 E 15 24 30.22 1023 10 16 0.00 0.00
6:17 am 06:17 Cloudy 23 -5 19 -7 86 86 E 14 22 30.28 1025 10 16 0.00 0.00
6:57 am 06:57 Cloudy 23 -5 19 -7.2 85 85 E 15 24 30.21 1023 9 14 0.00 0.03
7:57 am 07:57 Cloudy 22 -5.6 19 -7.2 89 89 E 10 17 30.22 1023 8 13 0.00 0.03
8:43 am 08:43 Cloudy 25 -4 19 -7 80 80 ESE 13 20 30.27 1025 8 13 0.00 0.00
8:57 am 08:57 Cloudy 24 -4.4 20 -6.7 84 84 ESE 15 24 30.20 1023 8 13 0.00 0.00
9:57 am 09:57 Mostly Cloudy 26 -3.3 21 -6.1 81 81 ESE 15 24 30.19 1022 7 11 0.00 0.00
10:57 am 10:57 Mostly Cloudy 28 -2.2 22 -5.6 78 78 SE 13 20 30.17 1022 7 11 0.00 0.00
11:57 am 11:57 Partly Cloudy 29 -1.7 23 -5 78 78 ESE 9 15 30.16 1021 7 11 0.00 0.03
12:30 pm 12:30 Mostly Cloudy with Light Snow 28 -2 23 -5 80 80 ESE 12 19 30.20 1023 2 3 0.00 0.03
12:38 pm 12:38 Mostly Cloudy with Light Snow 28 -2 23 -5 80 80 ESE 10 17 30.19 1022 2 3 0.00 0.03
12:54 pm 12:54 Cloudy with Light Snow 28 -2 25 -4 86 86 ESE 10 17 30.17 1022 1 1 0.00 0.03
12:57 pm 12:57 Cloudy with Light Snow 29 -1.7 24 -4.4 82 82 ESE 12 19 30.13 1020 1 1 0.00 0.03
1:04 pm 13:04 Cloudy with Light Snow 30 -1 25 -4 80 80 ESE 10 17 30.16 1021 1 2 0.00 0.03
1:09 pm 13:09 Mostly Cloudy with Light Snow 30 -1 25 -4 80 80 ESE 12 19 30.16 1021 3 5 0.00 0.03
1:27 pm 13:27 Cloudy with Light Snow 30 -1 25 -4 80 80 ESE 10 17 30.15 1021 3 5 0.00 0.03
1:29 pm 13:29 Cloudy with Light Snow 30 -1 25 -4 80 80 ESE 12 19 30.15 1021 2 2 0.00 0.03
1:32 pm 13:32 Cloudy with Light Snow 28 -2 25 -4 86 86 ESE 12 19 30.16 1021 1 1 0.00 0.03
1:35 pm 13:35 Cloudy with Snow 28 -2 23 -5 80 80 ESE 10 17 30.16 1021 1 1 0.00 0.03
1:42 pm 13:42 Cloudy with Light Snow 28 -2 25 -4 86 86 E 10 17 30.15 1021 1 1 0.00 0.03
1:52 pm 13:52 Cloudy with Light Snow 28 -2 25 -4 86 86 ESE 10 17 30.15 1021 1 2 0.00 0.03
1:53 pm 13:53 Cloudy with Light Snow 28 -2.2 24 -4.4 85 85 ESE 9 15 30.11 1020 1 2 0.00 0.03
2:04 pm 14:04 Cloudy with Light Snow 28 -2 25 -4 86 86 ESE 10 17 30.14 1021 3 5 0.00 0.03
2:33 pm 14:33 Cloudy with Light Snow 28 -2 25 -4 86 86 ESE 9 15 30.13 1020 2 3 0.00 0.03
2:46 pm 14:46 Cloudy with Light Snow 30 -1 25 -4 80 80 ESE 10 17 30.11 1020 1 2 0.00 0.03
2:52 pm 14:52 Cloudy with Light Snow 28 -2 25 -4 86 86 ESE 12 19 30.12 1020 1 2 0.01 0.25
2:57 pm 14:57 Cloudy with Light Snow 29 -1.7 25 -3.9 85 85 ESE 10 17 30.08 1019 1 2 0.01 0.25
3:20 pm 15:20 Cloudy with Light Snow 28 -2 27 -3 93 93 ESE 12 19 30.10 1019 1 2 0.00 0.03
3:41 pm 15:41 Cloudy with Light Snow 30 -1 27 -3 86 86 E 9 15 30.09 1019 2 3 0.00 0.00
3:49 pm 15:49 Cloudy with Light Snow 30 -1 27 -3 86 86 E 9 15 30.09 1019 2 3 0.00 0.00
3:57 pm 15:57 Cloudy with Light Snow 30 -1.1 26 -3.3 85 85 E 8 13 30.05 1018 3 4 0.00 0.03
4:12 pm 16:12 Cloudy with Light Snow 28 -2 27 -3 93 93 E 8 13 30.09 1019 2 3 0.00 0.00
4:25 pm 16:25 Cloudy with Light Snow 30 -1 27 -3 86 86 E 8 13 30.08 1019 3 4 0.00 0.00
4:29 pm 16:29 Cloudy with Light Snow 30 -1 27 -3 86 86 E 9 15 30.08 1019 3 5 0.00 0.00
4:37 pm 16:37 Cloudy with Light Snow 28 -2 27 -3 93 93 E 8 13 30.09 1019 3 4 0.02 0.51
4:48 pm 16:48 Cloudy with Mist and Fog 28 -2 27 -3 93 93 ESE 9 15 30.09 1019 4 6 0.00 0.00
4:57 pm 16:57 Cloudy with Mist and Fog 29 -1.7 26 -3.3 89 89 ESE 10 17 30.04 1017 4 6 0.03 0.76
5:43 pm 17:43 Cloudy with Light Snow 28 -2 27 -3 93 93 E 12 19 30.07 1018 2 3 0.00 0.03
5:57 pm 17:57 Cloudy with Light Snow 29 -1.7 27 -2.8 92 92 E 10 17 30.02 1017 3 4 0.00 0.03
6:06 pm 18:06 Cloudy with Light Snow 28 -2 27 -3 93 93 E 12 19 30.06 1018 4 6 0.00 0.03
6:57 pm 18:57 Cloudy with Mist and Fog 28 -2.2 26 -3.3 92 92 E 13 20 30.01 1016 6 10 0.00 0.03
7:46 pm 19:46 Cloudy with Mist and Fog 28 -2 27 -3 93 93 E 13 20 30.07 1018 4 6 0.00 0.03
7:57 pm 19:57 Cloudy with Light Snow 28 -2.2 26 -3.3 92 92 E 12 19 30.03 1017 3 5 0.00 0.03
8:11 pm 20:11 Cloudy with Light Snow 28 -2 27 -3 93 93 ESE 12 19 30.07 1018 3 4 0.00 0.00
8:32 pm 20:32 Cloudy with Light Snow 28 -2 27 -3 93 93 ESE 9 15 30.08 1019 3 5 0.00 0.03
8:57 pm 20:57 Cloudy with Mist and Fog 28 -2.2 26 -3.3 92 92 ESE 10 17 30.02 1017 4 6 0.00 0.03
9:53 pm 21:53 Cloudy with Mist and Fog 28 -2 27 -3 93 93 E 6 9 30.07 1018 3 5 0.00 0.00
9:57 pm 21:57 Cloudy with Mist and Fog 28 -2.2 27 -2.8 96 96 E 6 9 30.02 1017 3 5 0.00 0.00
10:35 pm 22:35 Cloudy with Mist and Fog 28 -2 27 -3 93 93 E 6 9 30.07 1018 3 4 0.00 0.00
10:57 pm 22:57 Cloudy with Light Snow 28 -2.2 27 -2.8 96 96 E 5 7 30.01 1016 2 3 0.00 0.03
11:52 pm 23:52 Cloudy with Light Snow 28 -2 27 -3 93 93 ENE 7 11 30.04 1017 2 2 0.00 0.03

Powered by AerisWeather